Bat Cave, NC

12:20 AM EDT on July 31, 2016 (GMT -0400)
Asheville Regional

Weather History for KAVL - July, 2006

Change the Weather History Date:

Thursday, July 6, 2006

  Actual Average Record
Temperature  
Mean Temperature 71 °F 74 °F  
Max Temperature 79 °F 84 °F 93 °F (1993)
Min Temperature 64 °F 63 °F 51 °F (1933)
Degree Days  
Heating Degree Days 0 0  
Month to date heating degree days 0  
Since 1 June heating degree days 14  
Since 1 July heating degree days 0  
Cooling Degree Days 6 9  
Month to date cooling degree days 50  
Year to date cooling degree days 285  
Since 1 June cooling degree days 227  
Growing Degree Days 21 (Base 50)    
Moisture  
Dew Point 61 °F    
Average Humidity 79    
Maximum Humidity 100    
Minimum Humidity 52    
Precipitation  
Precipitation 0.02 in 0.13 in 1.35 in (2008)
Month to date precipitation 0.85  
Year to date precipitation 23.75  
Snow  
Snow 0.00 in 0.00 in 0.00 in ()
Month to date snowfall 0.0  
Since 1 June snowfall 0.0  
Since 1 July snowfall 0.0  
Snow Depth -    
Sea Level Pressure  
Sea Level Pressure 30.07 in    
Wind  
Wind Speed 5 mph (NNW)    
Max Wind Speed 16 mph    
Max Gust Speed 22 mph    
Visibility 7 miles    
Events Rain    
T = Trace of Precipitation, MM = Missing Value Source: NWS Daily Summary

Daily Weather History Graph

Daily Weather History Graph

Search for Another Location

Airport or City:

Trip Planner

Search our weather history database for the weather conditions in past years. The results will help you decide how hot, cold, wet, or windy it might be!

Date:

Astronomy

Jul. 06, 2006 Rise Set
Actual Time 6:21 AM EDT 8:48 PM EDT
Civil Twilight 5:51 AM EDT 9:18 PM EDT
Nautical Twilight 5:14 AM EDT 9:54 PM EDT
Astronomical Twilight 4:34 AM EDT 10:35 PM EDT
Moon 4:45 PM EDT (7/6) 2:13 AM EDT (7/6)
Length of Visible Light 15h 26m
Length of Day
14h 27m
Waxing Gibbous, 78% of the Moon is Illuminated
Jul 6
Waxing Gibbous
Jul 10
Full
Jul 17
Last Quarter
Jul 25
New
Aug 2
First Quarter

Hourly Weather History & Observations

Time (EDT) Temp. Dew Point Humidity Pressure Visibility Wind Dir Wind Speed Gust Speed Precip Events Conditions
12:54 AM 64.9 °F 64.0 °F 97% 30.03 in 4.0 mi Calm Calm - 0.00 in   Mostly Cloudy
1:54 AM 64.9 °F 63.0 °F 93% 30.01 in 5.0 mi Calm Calm - 0.01 in Rain Light Rain
2:01 AM 66.2 °F 64.4 °F 94% 30.07 in 5.0 mi Calm Calm - 0.00 in   Mostly Cloudy
2:17 AM 66.2 °F 64.4 °F 94% 30.07 in 4.0 mi NW 4.6 mph - 0.00 in Rain Light Rain
2:54 AM 64.9 °F 64.0 °F 97% 29.99 in 4.0 mi Calm Calm - 0.00 in   Mostly Cloudy
3:54 AM 64.9 °F 64.0 °F 97% 29.99 in 2.5 mi Calm Calm - N/A   Overcast
4:10 AM 64.4 °F 64.4 °F 100% 30.06 in 3.0 mi NNW 3.5 mph - 0.00 in Rain Light Rain
4:54 AM 66.0 °F 64.0 °F 93% 29.98 in 5.0 mi Calm Calm - 0.00 in   Overcast
5:54 AM 66.0 °F 63.0 °F 90% 29.99 in 6.0 mi North 5.8 mph - N/A   Overcast
6:03 AM 66.2 °F 62.6 °F 88% 30.06 in 7.0 mi North 9.2 mph - N/A   Overcast
6:10 AM 66.2 °F 62.6 °F 88% 30.07 in 7.0 mi North 9.2 mph - N/A   Overcast
6:27 AM 66.2 °F 62.6 °F 88% 30.07 in 2.0 mi North 6.9 mph - N/A   Overcast
6:45 AM 66.2 °F 62.6 °F 88% 30.07 in 2.0 mi North 3.5 mph - N/A   Overcast
6:54 AM 66.0 °F 63.0 °F 90% 30.01 in 2.0 mi NNW 6.9 mph - N/A   Overcast
7:54 AM 66.0 °F 64.0 °F 93% 30.02 in 6.0 mi NNW 9.2 mph - N/A   Mostly Cloudy
8:04 AM 66.2 °F 64.4 °F 94% 30.09 in 7.0 mi NNW 6.9 mph - N/A   Overcast
8:24 AM 66.2 °F 64.4 °F 94% 30.10 in 8.0 mi North 6.9 mph - 0.00 in   Overcast
8:54 AM 66.9 °F 64.0 °F 90% 30.04 in 10.0 mi NNW 11.5 mph - 0.00 in Rain Light Rain
9:05 AM 66.2 °F 64.4 °F 94% 30.10 in 10.0 mi NNW 12.7 mph - 0.00 in Rain Light Rain
9:54 AM 68.0 °F 64.0 °F 87% 30.05 in 10.0 mi NNW 12.7 mph - 0.01 in   Scattered Clouds
10:54 AM 70.0 °F 63.0 °F 78% 30.06 in 10.0 mi NNW 10.4 mph - N/A   Mostly Cloudy
11:54 AM 71.1 °F 63.0 °F 75% 30.08 in 10.0 mi NNW 11.5 mph - N/A   Overcast
12:41 PM 73.4 °F 62.6 °F 69% 30.15 in 10.0 mi NNW 8.1 mph - N/A   Overcast
12:54 PM 73.9 °F 63.0 °F 68% 30.08 in 10.0 mi NNW 6.9 mph - N/A   Overcast
1:54 PM 75.9 °F 62.1 °F 62% 30.07 in 10.0 mi North 10.4 mph - N/A   Partly Cloudy
2:54 PM 78.1 °F 61.0 °F 56% 30.06 in 10.0 mi North 13.8 mph - N/A   Clear
3:54 PM 77.0 °F 59.0 °F 54% 30.06 in 10.0 mi NNW 16.1 mph 21.9 mph N/A   Clear
4:54 PM 75.0 °F 59.0 °F 57% 30.07 in 10.0 mi NNW 13.8 mph - N/A   Partly Cloudy
5:54 PM 75.0 °F 57.9 °F 55% 30.07 in 10.0 mi NNW 15.0 mph - N/A   Scattered Clouds
6:54 PM 73.9 °F 55.0 °F 52% 30.09 in 10.0 mi North 13.8 mph 20.7 mph N/A   Scattered Clouds
7:54 PM 71.1 °F 53.1 °F 53% 30.13 in 10.0 mi NNW 11.5 mph - N/A   Partly Cloudy
8:54 PM 68.0 °F 52.0 °F 56% 30.14 in 10.0 mi NNW 11.5 mph - N/A   Scattered Clouds
9:54 PM 66.9 °F 52.0 °F 59% 30.16 in 10.0 mi NNW 9.2 mph - N/A   Partly Cloudy
10:54 PM 66.0 °F 53.1 °F 63% 30.18 in 10.0 mi North 5.8 mph - N/A   Mostly Cloudy
11:54 PM 64.9 °F 54.0 °F 68% 30.19 in 10.0 mi NNW 9.2 mph - N/A   Overcast